{"data":{"norad_id":57449,"epoch":"2026-09-20T16:11:12.416064Z","epoch_age_seconds":112787,"freshness":"FRESH","line1":"1 57449U 23105V   26263.67444926  .00001749  00000+0  73044-4 0  9993","line2":"2 57449  43.0037 241.9678 0001718 281.8299  78.2360 15.27587083175422","mean_motion":15.27587083,"eccentricity":0.0001718,"inclination_deg":43.0037,"raan_deg":241.9678,"arg_perigee_deg":281.8299,"mean_anomaly_deg":78.236,"bstar":7.3044e-5,"rev_number":17542,"period_min":94.266311624736,"perigee_km":481.84913894391,"apogee_km":484.20663519911,"semimajor_km":6861.1648870715,"source":"CELESTRAK","updated_at":"2026-09-21T09:00:33.628192Z"}}